Courtenay, British Columbia

8:53 PM PST on February 21, 2017 (GMT -0800)
Comox

Weather History for CYQQ - February, 2013

Change the Weather History Date:

Thursday, February 14, 2013

  Actual Average Record
Temperature  
Mean Temperature 42 °F -  
Max Temperature 43 °F 47 °F 53 °F (2014)
Min Temperature 40 °F 34 °F 28 °F (2000)
Degree Days  
Heating Degree Days 24    
Moisture  
Dew Point 42 °F    
Average Humidity 100    
Maximum Humidity 100    
Minimum Humidity 93    
Precipitation  
Precipitation 0.12 in 0.16 in - ()
Sea Level Pressure  
Sea Level Pressure 30.53 in    
Wind  
Wind Speed 2 mph ()    
Max Wind Speed 7 mph    
Max Gust Speed -    
Visibility 7.4 miles    
Events Rain    
Averages and records for this station are not official NWS values.
T = Trace of Precipitation, MM = Missing Value Source: Averaged Metar Reports

Daily Weather History Graph

Daily Weather History Graph

Search for Another Location

Airport or City:

Trip Planner

Search our weather history database for the weather conditions in past years. The results will help you decide how hot, cold, wet, or windy it might be!

Date:

Astronomy

Feb. 14, 2013 Rise Set
Actual Time 7:30 AM PST 5:37 PM PST
Civil Twilight 6:57 AM PST 6:10 PM PST
Nautical Twilight 6:19 AM PST 6:48 PM PST
Astronomical Twilight 5:42 AM PST 7:25 PM PST
Moon 9:03 AM PST (2/14) 11:22 PM PST (2/14)
Length of Visible Light 11h 13m
Length of Day
10h 07m
Waxing Crescent, 22% of the Moon is Illuminated
Feb 14
Waxing Crescent
Feb 17
First Quarter
Feb 25
Full
Mar 4
Last Quarter
Mar 11
New

Hourly Weather History & Observations

Time (PST) Temp. Windchill Dew Point Humidity Pressure Visibility Wind Dir Wind Speed Gust Speed Precip Events Conditions
12:00 AM 41.0 °F - 39.2 °F 93% 30.46 in 20.0 mi Calm Calm - N/A Rain Light Rain
1:00 AM 41.0 °F - 41.0 °F 100% 30.45 in 10.0 mi South 2.3 mph - N/A Rain Light Rain
2:00 AM 41.0 °F - 41.0 °F 100% 30.47 in 10.0 mi WNW 2.3 mph - N/A Rain Light Rain
3:00 AM 41.0 °F - 41.0 °F 100% 30.48 in 10.0 mi West 2.3 mph - N/A Rain Light Rain
4:00 AM 41 °F - 41 °F 100% 30.48 in 12 mi SSW 2.3 mph - - Rain Light Rain
4:00 AM 41.0 °F - 41.0 °F 100% 30.48 in 12.0 mi SSW 2.3 mph - N/A Rain Light Rain
5:00 AM 41.0 °F - 41.0 °F 100% 30.49 in 12.0 mi Calm Calm - N/A Rain Light Rain
6:00 AM 41.0 °F - 41.0 °F 100% 30.49 in 15.0 mi Calm Calm - N/A Rain Light Rain
6:41 AM - - - N/A% - 20.0 mi Calm Calm - N/A   Overcast
7:00 AM 41.0 °F - 41.0 °F 100% 30.51 in 12.0 mi Calm Calm - N/A Rain Light Rain
8:00 AM 41.0 °F - 41.0 °F 100% 30.51 in 12.0 mi Calm Calm - N/A Rain Light Rain
8:27 AM - - - N/A% - 12.0 mi SSE 4.6 mph - N/A Rain Light Rain
9:00 AM 41.0 °F - 41.0 °F 100% 30.51 in 12.0 mi South 2.3 mph - N/A Rain Light Rain
10:00 AM 41 °F - 41 °F 99% 30.53 in 12 mi SSW 2.3 mph - - Rain Light Rain
10:00 AM 41.0 °F - 41.0 °F 100% 30.53 in 12.0 mi Calm Calm - N/A Rain Light Rain
11:00 AM 41.0 °F - 41.0 °F 100% 30.54 in 6.0 mi Calm Calm - N/A Rain Light Rain
11:36 AM - - - N/A% - 8.0 mi ESE 6.9 mph - N/A Rain Light Rain
12:00 PM 42.8 °F 41.1 °F 42.8 °F 100% 30.56 in 5.0 mi SE 3.5 mph - N/A Rain Light Rain
12:50 PM - - - N/A% - 2.5 mi ESE 4.6 mph - N/A Rain Light Rain
1:00 PM 42.8 °F 40.1 °F 42.8 °F 100% 30.56 in 2.5 mi ESE 4.6 mph - N/A Rain Light Rain
1:46 PM - - - N/A% - 1.5 mi ESE 3.5 mph - N/A Rain Light Rain
2:00 PM 42.8 °F 41.1 °F 42.8 °F 100% 30.56 in 1.0 mi SE 3.5 mph - N/A Rain Light Rain
3:00 PM 42.8 °F 38.6 °F 42.8 °F 100% 30.57 in 1.0 mi ESE 6.9 mph - N/A Rain Light Rain
4:00 PM 43 °F - 43 °F 100% 30.57 in 1 mi ESE 3.5 mph - - Rain Light Rain
4:00 PM 42.8 °F 40.1 °F 42.8 °F 100% 30.57 in 1.0 mi ESE 4.6 mph - N/A Rain Light Rain
5:00 PM 42.8 °F 39.3 °F 42.8 °F 100% 30.58 in 1.0 mi ESE 5.8 mph - N/A Rain Light Rain
6:00 PM 42.8 °F 41.1 °F 42.8 °F 100% 30.58 in 1.0 mi SSE 3.5 mph - N/A Rain Light Rain
7:00 PM 42.8 °F 40.1 °F 42.8 °F 100% 30.58 in 1.0 mi SSE 4.6 mph - N/A Rain Light Rain
7:30 PM - - - N/A% - 1.0 mi SSE 2.3 mph - N/A   Light Drizzle
8:00 PM 42.8 °F - 42.8 °F 100% 30.58 in 1.0 mi Calm Calm - N/A   Light Drizzle
9:00 PM 42.8 °F 40.1 °F 42.8 °F 100% 30.58 in 1.0 mi East 4.6 mph - N/A   Light Drizzle
9:51 PM - - - N/A% - 8.0 mi East 2.3 mph - N/A   Light Drizzle
10:00 PM 43 °F - 43 °F 99% 30.58 in 7 mi ESE 3.5 mph - - Rain Light Drizzle
10:00 PM 42.8 °F 41.1 °F 42.8 °F 100% 30.58 in 8.0 mi ESE 3.5 mph - N/A   Light Drizzle
11:00 PM 42.8 °F - 42.8 °F 100% 30.58 in 12.0 mi South 2.3 mph - N/A   Light Drizzle
11:23 PM - - - N/A% - 3.0 mi SSW 2.3 mph - N/A Rain Light Rain